Location: Lachaise
(45.8833°N, 1.8500°E)
Time: 07:27:14
(UTC+00:00)

Alouette 2 Rocket - Pass Details

Date: 07 June 2020
Orbit: 502 x 2650 km, 79.8° (Epoch: 14 July)

Event Time Altitude Azimuth Distance (km) Brightness Sun altitude
Rises 01:20:39 0° 339° (NNW) 3,353 8.1 -18.4°
Reaches altitude 10° 01:23:34 10° 329° (NNW) 2,164 6.8 -18.2°
Maximum altitude 01:27:28 28° 270° (W) 1,086 4.6 -18.0°
Enters shadow 01:28:04 27° 253° (WSW) 1,095 4.5 -17.9°
